Goshen, IN

1:26 PM EDT on September 19, 2017 (GMT -0400)
Goshen Municipal

Weather History for KGSH - March, 2013

Change the Weather History Date:

Monday, March 25, 2013

  Actual Average Record
Temperature  
Mean Temperature 32 °F -  
Max Temperature 36 °F 49 °F 78 °F (2007)
Min Temperature 28 °F 29 °F 4 °F (1960)
Degree Days  
Heating Degree Days 33    
Moisture  
Dew Point 26 °F    
Average Humidity 80    
Maximum Humidity 93    
Minimum Humidity 62    
Precipitation  
Precipitation 0.02 in - - ()
Sea Level Pressure  
Sea Level Pressure 29.68 in    
Wind  
Wind Speed 14 mph (North)    
Max Wind Speed 18 mph    
Max Gust Speed 25 mph    
Visibility 5 miles    
Events Fog , Snow    
Averages and records for this station are not official NWS values.
T = Trace of Precipitation, MM = Missing Value Source: NWS Daily Summary

Daily Weather History Graph

Daily Weather History Graph

Search for Another Location

Airport or City:

Trip Planner

Search our weather history database for the weather conditions in past years. The results will help you decide how hot, cold, wet, or windy it might be!

Date:

Astronomy

Mar. 25, 2013 Rise Set
Actual Time 7:37 AM EDT 8:01 PM EDT
Civil Twilight 7:09 AM EDT 8:28 PM EDT
Nautical Twilight 6:37 AM EDT 9:01 PM EDT
Astronomical Twilight 6:03 AM EDT 9:35 PM EDT
Moon 6:31 PM EDT (3/25) 6:21 AM EDT (3/25)
Length of Visible Light 13h 19m
Length of Day
12h 23m
Waxing Gibbous, 96% of the Moon is Illuminated
Mar 25
Waxing Gibbous
Mar 27
Full
Apr 3
Last Quarter
Apr 10
New
Apr 18
First Quarter

Hourly Weather History & Observations

Time (EDT) Temp. Windchill Dew Point Humidity Pressure Visibility Wind Dir Wind Speed Gust Speed Precip Events Conditions
12:19 AM 30.2 °F 18.9 °F 21.2 °F 69% 29.59 in 3.0 mi NNE 16.1 mph 25.3 mph 0.00 in Snow Light Snow
12:27 AM 30.2 °F 19.3 °F 23.0 °F 75% 29.59 in 2.5 mi NNE 15.0 mph 25.3 mph 0.00 in Snow Light Snow
12:45 AM 30.2 °F 19.8 °F 24.8 °F 80% 29.59 in 1.8 mi NNE 13.8 mph - 0.00 in Snow Light Snow
12:53 AM 30.0 °F 19.5 °F 24.1 °F 79% 29.62 in 1.2 mi NNE 13.8 mph 21.9 mph 0.00 in Snow Light Snow
1:00 AM 30.2 °F 19.8 °F 24.8 °F 80% 29.59 in 1.2 mi NNE 13.8 mph 23.0 mph 0.00 in Snow Light Snow
1:27 AM 28.4 °F 16.6 °F 24.8 °F 86% 29.58 in 1.0 mi NNE 16.1 mph - 0.00 in Snow Light Snow
1:35 AM 28.4 °F 16.6 °F 24.8 °F 86% 29.58 in 0.8 mi NNE 16.1 mph - 0.00 in Snow Light Snow
1:42 AM 28.4 °F 17.0 °F 24.8 °F 86% 29.58 in 1.0 mi North 15.0 mph - 0.00 in Snow Light Snow
1:53 AM 28.9 °F 16.9 °F 25.0 °F 85% 29.60 in 0.8 mi North 17.3 mph - 0.00 in Snow Light Snow
2:16 AM 28.4 °F 17.0 °F 26.6 °F 93% 29.58 in 0.5 mi North 15.0 mph - 0.00 in Fog , Snow Snow
2:31 AM 28.4 °F 16.6 °F 24.8 °F 86% 29.57 in 0.8 mi North 16.1 mph - 0.01 in Snow Light Snow
2:53 AM 28.9 °F 18.2 °F 26.1 °F 89% 29.60 in 0.8 mi North 13.8 mph - 0.01 in Snow Light Snow
3:26 AM 28.4 °F 18.0 °F 26.6 °F 93% 29.57 in 0.8 mi North 12.7 mph - 0.00 in Snow Light Snow
3:41 AM 28.4 °F 18.0 °F 26.6 °F 93% 29.57 in 1.0 mi North 12.7 mph - 0.00 in Snow Light Snow
3:53 AM 28.9 °F 18.2 °F 26.1 °F 89% 29.60 in 1.0 mi North 13.8 mph - 0.00 in Snow Light Snow
4:02 AM 28.4 °F 17.5 °F 26.6 °F 93% 29.57 in 0.8 mi North 13.8 mph - 0.00 in Snow Light Snow
4:36 AM 28.4 °F 17.0 °F 26.6 °F 93% 29.56 in 1.0 mi North 15.0 mph - 0.01 in Snow Light Snow
4:53 AM 28.9 °F 18.6 °F 25.0 °F 85% 29.59 in 1.2 mi North 12.7 mph - 0.01 in Snow Light Snow
5:08 AM 28.4 °F 17.5 °F 24.8 °F 86% 29.57 in 3.0 mi North 13.8 mph - 0.00 in Snow Light Snow
5:21 AM 28.4 °F 17.5 °F 24.8 °F 86% 29.56 in 5.0 mi North 13.8 mph - 0.00 in Snow Light Snow
5:53 AM 28.9 °F 18.2 °F 25.0 °F 85% 29.59 in 5.0 mi North 13.8 mph - 0.00 in Snow Light Snow
6:53 AM 30.0 °F 20.0 °F 25.0 °F 82% 29.60 in 5.0 mi North 12.7 mph - 0.00 in Snow Light Snow
7:06 AM 30.2 °F 19.8 °F 24.8 °F 80% 29.58 in 2.5 mi North 13.8 mph - 0.00 in Snow Light Snow
7:24 AM 30.2 °F 20.8 °F 26.6 °F 86% 29.59 in 4.0 mi NNW 11.5 mph - 0.00 in Snow Light Snow
7:53 AM 30.0 °F 21.1 °F 26.1 °F 85% 29.62 in 6.0 mi NNW 10.4 mph - 0.00 in Snow Light Snow
8:16 AM 30.2 °F 21.3 °F 26.6 °F 86% 29.60 in 1.8 mi North 10.4 mph - 0.00 in Snow Light Snow
8:34 AM 30.2 °F 19.3 °F 26.6 °F 86% 29.61 in 1.5 mi North 15.0 mph - 0.00 in Snow Light Snow
8:53 AM 30.9 °F 21.2 °F 26.1 °F 82% 29.64 in 1.5 mi North 12.7 mph - 0.00 in Snow Light Snow
9:09 AM 30.2 °F 20.2 °F 26.6 °F 86% 29.63 in 0.8 mi North 12.7 mph - 0.00 in Snow Light Snow
9:41 AM 30.2 °F 21.3 °F 28.4 °F 93% 29.63 in 1.2 mi North 10.4 mph - 0.00 in Snow Light Snow
9:53 AM 30.9 °F 22.2 °F 28.0 °F 89% 29.66 in 2.5 mi North 10.4 mph - 0.00 in Snow Light Snow
10:00 AM 32.0 °F 22.1 °F 26.6 °F 80% 29.64 in 4.0 mi North 13.8 mph - 0.00 in Snow Light Snow
10:53 AM 33.1 °F 23.0 °F 26.1 °F 75% 29.68 in 10.0 mi North 15.0 mph - 0.00 in   Overcast
11:44 AM 35.6 °F 25.5 °F 24.8 °F 65% 29.68 in 10.0 mi North 17.3 mph 21.9 mph N/A   Overcast
11:53 AM 35.1 °F 25.2 °F 24.1 °F 64% 29.70 in 10.0 mi North 16.1 mph - N/A   Overcast
12:53 PM 35.1 °F 24.5 °F 24.1 °F 64% 29.73 in 10.0 mi North 18.4 mph - N/A   Overcast
1:53 PM 35.1 °F 25.9 °F 24.1 °F 64% 29.75 in 10.0 mi North 13.8 mph - N/A   Overcast
2:53 PM 36.0 °F 25.6 °F 24.1 °F 62% 29.77 in 10.0 mi North 18.4 mph 25.3 mph N/A   Overcast
3:53 PM 35.1 °F 25.2 °F 25.0 °F 67% 29.79 in 10.0 mi North 16.1 mph - N/A   Overcast
4:53 PM 36.0 °F 27.5 °F 25.0 °F 64% 29.81 in 10.0 mi North 12.7 mph - N/A   Overcast
5:53 PM 35.1 °F 25.2 °F 25.0 °F 67% 29.84 in 10.0 mi NNW 16.1 mph - N/A   Overcast
6:25 PM 35.6 °F 26.6 °F 28.4 °F 75% 29.84 in 10.0 mi NNW 13.8 mph - 0.00 in   Overcast
6:34 PM 35.6 °F 26.6 °F 28.4 °F 75% 29.84 in 8.0 mi NNW 13.8 mph 19.6 mph 0.00 in   Overcast
6:53 PM 34.0 °F 26.0 °F 28.9 °F 82% 29.88 in 8.0 mi NNW 10.4 mph - 0.00 in Snow Light Snow
7:53 PM 34.0 °F 25.0 °F 28.0 °F 79% 29.91 in 10.0 mi NW 12.7 mph - 0.00 in   Overcast
8:53 PM 35.1 °F 26.4 °F 26.1 °F 70% 29.93 in 10.0 mi NW 12.7 mph - N/A   Overcast
9:53 PM 34.0 °F 25.5 °F 26.1 °F 73% 29.96 in 10.0 mi NW 11.5 mph - N/A   Overcast
10:53 PM 34.0 °F 26.0 °F 25.0 °F 70% 29.98 in 10.0 mi NW 10.4 mph - N/A   Overcast
11:53 PM 34.0 °F 26.6 °F 25.0 °F 70% 29.99 in 10.0 mi NNW 9.2 mph - N/A   Overcast